Showing default

USA 72, 21775

Orbit data source: Space-Track

USA 72, 21775 is an American payload satellite in HEO that was launched on Fri, 08 Nov 1991 UTC via a TITAN 403A launch vehicle from the Air Force Western Test Range (AFWTR). Payload-class satellites include a variety of spacecraft equipped with specific instruments for various scientific and technological missions. These include communications satellites like Starlink; space stations such as the ISS; scientific satellites like the Hubble; Earth observation satellites from companies like Planet Labs, Umbra, and HawkEye 360; GPS; miniature CubeSats for education and research; and military/defense satellites.

Loading next visibility...
Identifier
21775, 1991-076A
Orbit
HEO
Country
Flag of USUS
Related business
Manufacturer
NRL
Mission
Defense Sigint
Bus & Motor
NOSS B, Unknown motor
Mass
~3,000 kg wet, ~3,000 kg dry
Launch date (UTC)
1991-11-08 (35 years ago)
Launch vehicle
TITAN 403A
Launch site
Air Force Western Test Range (AFWTR)
Object type
Payload
Rocket body
Debris
Shape & HBR
Cyl, 0.5 m
Radar Cross Section
1.178 m²

Expand to show TLE details & history
Last TLE update: 2 days ago

TLE from 2 days ago
0 USA 72
1 21775U 91076A   26148.24437677  .00000019  00000-0  00000-0 0  9996
2 21775  63.3481 218.4930 3339999 273.0968  49.9844  5.53396640 41459
Epoch: 2026-05-28T05:51Z
TLE epoch observation values (Epoch: 2026-05-28T05:51:54.152Z)
Latitude
-0.00003°
Longitude
-115.27585°
Altitude
5,411.633 km
Speed
6.173 km/s
True Right ascension
14h 33m 58s
True Declination
0° 00' 00"
Sunlit
Object was in daylight at epoch
Visualization orbit readout
Latitude
Unknown
Longitude
Unknown
Altitude
Unknown
Speed
Unknown
Apparent Right ascension
Unknown
Apparent Declination
Unknown
Sunlit
N/A
Visualization observer readout
Local Sidereal Time
18:44:51
Azimuth
Unknown
Elevation
Unknown
Doppler factor
Unknown
Orbital elements
Apogee altitude
11,631.656 km
Perigee altitude
2,613.261 km
Semi-major axis
13,500.596 km
Eccentricity
0.334
Inclination
63.3481°
RAAN
218.493°
Arg. of periapsis
273.0968°
True anomaly
87.00377°
Mean anomaly
49.9844°
Eccentric anomaly
67.68848°
Mean motion
1.38361 °/min
Orbital period
260.19 mins
BSTAR
0
Loading maneuver chart data...
Computing Atmospheric mass density...
Loading historical data...
Loading historical data...
Loading historical data...
Loading historical data...
Loading historical data...
Loading historical data...
Loading historical data...

Documentation

Showing up to 5 results
|